Date String (YYYY-MM-DD hh:mm:ss) UTC,Instrument flags,Ambient pressure (hPa),Sample flow (lpm),Bypass flow (lpm),Sample temperature (°C),Ambient temperature (°C),ASC tube jacket temperature (°C),LED temperature (°C),Box temperature (°C),Sample RH (%),Span deviation,Mass concentration (μg/m³),Mass concentration (μg/m³),Mass concentration (μg/m³)
DateTimeUTC,F1_M11,P_M11,Q1_M11,Q2_M11,T1_M11,T2_M11,T3_M11,T4_M11,T5_M11,U1_M11,ZSPAN_M11,X0_M11,X2_M11,X1_M11
2021-10-27 18:00:00,,0823.2,4.99,0.00,26.8,26.1,00.0,35.6,28.7,08.0,0000.0,0002.08,0000.80,0000.55
2021-10-27 18:01:00,,0823.1,5.01,0.00,26.8,26.1,00.0,35.7,28.7,07.9,0000.0,0002.01,0000.75,0000.54
2021-10-27 18:02:00,,0823.1,4.99,0.00,26.8,26.1,00.0,35.7,28.7,08.0,0000.0,0001.88,0000.76,0000.53
2021-10-27 18:03:00,,0823.1,5.00,0.00,26.9,26.1,00.0,35.7,28.7,08.1,0000.0,0001.77,0000.75,0000.51
2021-10-27 18:04:00,,0823.0,5.01,0.00,26.9,26.2,00.0,35.7,28.8,08.1,0000.0,0001.87,0000.76,0000.50
2021-10-27 18:05:00,,0823.0,4.98,0.00,26.9,26.2,00.0,35.7,28.8,08.2,0000.0,0002.16,0000.83,0000.51
2021-10-27 18:06:00,,0823.1,5.00,0.00,26.9,26.2,00.0,35.8,28.8,08.2,0000.0,0002.18,0000.87,0000.51
2021-10-27 18:07:00,,0823.1,5.00,0.00,26.9,26.3,00.0,35.8,28.9,08.2,0000.0,0002.00,0000.86,0000.52
2021-10-27 18:08:00,,0823.1,4.99,0.00,27.0,26.3,00.0,35.8,28.9,08.1,0000.0,0002.25,0000.88,0000.52
2021-10-27 18:09:00,,0823.2,5.01,0.00,27.0,26.3,00.0,35.8,28.9,08.1,0000.0,0002.38,0000.93,0000.52
2021-10-27 18:10:00,,0823.2,5.00,0.00,27.0,26.3,00.0,35.9,29.0,08.0,0000.0,0002.59,0000.96,0000.52
2021-10-27 18:11:00,,0823.2,5.00,0.00,27.0,26.4,00.0,35.9,29.0,07.9,0000.0,0002.58,0000.95,0000.52
2021-10-27 18:12:00,,0823.2,5.00,0.00,27.1,26.4,00.0,35.9,29.0,07.9,0000.0,0002.77,0000.94,0000.52
2021-10-27 18:13:00,,0823.2,5.00,0.00,27.1,26.4,00.0,35.9,29.0,07.9,0000.0,0004.12,0000.93,0000.53
2021-10-27 18:14:00,,0823.3,5.00,0.00,27.1,26.4,00.0,36.0,29.0,08.0,0000.0,0004.20,0000.90,0000.53
2021-10-27 18:15:00,,0823.1,5.00,0.00,27.1,26.4,00.0,36.0,29.1,08.1,0000.0,0004.39,0000.86,0000.53
2021-10-27 18:16:00,,0823.0,5.00,0.00,27.1,26.4,00.0,36.0,29.1,08.1,0000.0,0004.15,0000.78,0000.51
2021-10-27 18:17:00,,0822.9,4.99,0.00,27.2,26.5,00.0,36.0,29.1,08.0,0000.0,0003.96,0000.75,0000.50
2021-10-27 18:18:00,,0822.7,5.01,0.00,27.2,26.4,00.0,36.0,29.1,08.0,0000.0,0003.96,0000.76,0000.50
2021-10-27 18:19:00,,0822.9,5.00,0.00,27.2,26.5,00.0,36.1,29.1,08.1,0000.0,0003.93,0000.78,0000.50
2021-10-27 18:20:00,,0823.0,4.99,0.00,27.2,26.5,00.0,36.1,29.1,08.1,0000.0,0003.86,0000.81,0000.50
2021-10-27 18:21:00,,0822.9,4.98,0.00,27.2,26.5,00.0,36.1,29.1,08.1,0000.0,0004.11,0000.89,0000.50
2021-10-27 18:22:00,,0822.9,5.00,0.00,27.3,26.5,00.0,36.1,29.1,08.2,0000.0,0004.71,0000.91,0000.49
2021-10-27 18:23:00,,0822.7,5.00,0.00,27.3,26.5,00.0,36.1,29.2,08.2,0000.0,0006.02,0001.07,0000.50
2021-10-27 18:24:00,,0822.7,5.01,0.00,27.3,26.5,00.0,36.2,29.1,08.1,0000.0,0004.83,0001.09,0000.51
2021-10-27 18:25:00,,0822.6,5.00,0.00,27.3,26.4,00.0,36.2,29.1,08.1,0000.0,0004.68,0001.12,0000.51
2021-10-27 18:26:00,,0822.5,5.00,0.00,27.3,26.4,00.0,36.2,29.0,08.0,0000.0,0005.11,0001.15,0000.51
2021-10-27 18:27:00,,0822.4,5.01,0.00,27.3,26.4,00.0,36.2,29.1,08.1,0000.0,0005.40,0001.22,0000.52
2021-10-27 18:28:00,,0822.5,5.00,0.00,27.3,26.4,00.0,36.2,29.1,08.1,0000.0,0005.61,0001.27,0000.52
2021-10-27 18:29:00,,0822.5,5.00,0.00,27.3,26.3,00.0,36.2,29.0,08.0,0000.0,0005.94,0001.28,0000.53
2021-10-27 18:30:00,,0822.4,5.01,0.00,27.3,26.3,00.0,36.2,29.0,08.1,0000.0,0006.68,0001.29,0000.53
2021-10-27 18:31:00,,0822.4,4.99,0.00,27.2,26.3,00.0,36.2,29.0,08.1,0000.0,0006.82,0001.26,0000.54
2021-10-27 18:32:00,,0822.4,5.00,0.00,27.2,26.2,00.0,36.2,28.9,08.0,0000.0,0006.58,0001.18,0000.54
2021-10-27 18:33:00,,0822.4,5.00,0.00,27.2,26.2,00.0,36.2,28.9,08.1,0000.0,0006.16,0001.18,0000.55
2021-10-27 18:34:00,,0822.4,5.00,0.00,27.2,26.1,00.0,36.2,28.9,08.1,0000.0,0005.33,0001.12,0000.55
2021-10-27 18:35:00,,0822.4,4.98,0.00,27.2,26.1,00.0,36.2,28.9,08.1,0000.0,0005.17,0001.09,0000.55
2021-10-27 18:36:00,,0822.4,4.99,0.00,27.2,26.1,00.0,36.2,28.9,08.1,0000.0,0005.24,0001.13,0000.55
2021-10-27 18:37:00,,0822.3,5.02,0.00,27.2,26.1,00.0,36.2,28.9,08.1,0000.0,0004.76,0001.10,0000.54
2021-10-27 18:38:00,,0822.3,5.00,0.00,27.2,26.1,00.0,36.2,28.9,07.9,0000.0,0005.16,0001.10,0000.55
2021-10-27 18:39:00,,0822.4,5.00,0.00,27.2,26.1,00.0,36.2,28.8,07.9,0000.0,0005.23,0001.10,0000.56
2021-10-27 18:40:00,,0822.4,5.01,0.00,27.2,26.1,00.0,36.2,28.8,07.9,0000.0,0004.95,0001.08,0000.55
2021-10-27 18:41:00,,0822.4,4.99,0.00,27.2,26.1,00.0,36.2,28.8,07.8,0000.0,0004.23,0001.05,0000.55
2021-10-27 18:42:00,,0822.4,5.00,0.00,27.1,26.0,00.0,36.2,28.8,07.9,0000.0,0004.05,0001.03,0000.56
2021-10-27 18:43:00,,0822.2,5.00,0.00,27.1,26.0,00.0,36.2,28.8,08.0,0000.0,0004.38,0001.03,0000.56
2021-10-27 18:44:00,,0822.2,5.00,0.00,27.1,26.0,00.0,36.2,28.8,08.1,0000.0,0004.29,0001.02,0000.56
2021-10-27 18:45:00,,0822.0,4.99,0.00,27.1,26.0,00.0,36.2,28.8,08.0,0000.0,0004.06,0001.00,0000.56
2021-10-27 18:46:00,,0822.2,5.00,0.00,27.1,26.0,00.0,36.2,28.8,08.0,0000.0,0003.92,0001.00,0000.56
2021-10-27 18:47:00,,0822.2,5.00,0.00,27.1,26.0,00.0,36.2,28.8,08.1,0000.0,0004.11,0001.03,0000.57
2021-10-27 18:48:00,,0822.3,5.01,0.00,27.1,26.1,00.0,36.2,28.8,08.1,0000.0,0004.17,0001.07,0000.57
2021-10-27 18:49:00,,0822.2,5.00,0.00,27.1,26.0,00.0,36.2,28.8,08.2,0000.0,0003.20,0001.03,0000.57
2021-10-27 18:50:00,,0822.1,5.00,0.00,27.1,26.0,00.0,36.2,28.8,08.1,0000.0,0003.10,0001.00,0000.56
2021-10-27 18:51:00,,0822.2,5.00,0.00,27.1,26.0,00.0,36.2,28.8,08.1,0000.0,0003.27,0001.03,0000.57
2021-10-27 18:52:00,,0822.2,5.00,0.00,27.1,26.0,00.0,36.2,28.8,08.1,0000.0,0003.45,0001.08,0000.57
2021-10-27 18:53:00,,0822.1,4.99,0.00,27.1,26.0,00.0,36.2,28.8,08.0,0000.0,0003.05,0001.10,0000.56
2021-10-27 18:54:00,,0822.2,5.00,0.00,27.1,26.0,00.0,36.2,28.8,08.0,0000.0,0002.86,0001.13,0000.56
2021-10-27 18:55:00,,0822.2,5.00,0.00,27.1,26.0,00.0,36.2,28.8,08.0,0000.0,0002.88,0001.14,0000.57
2021-10-27 18:56:00,,0822.2,5.00,0.00,27.1,26.0,00.0,36.2,28.8,08.0,0000.0,0002.88,0001.15,0000.58
2021-10-27 18:57:00,,0822.2,5.00,0.00,27.1,26.0,00.0,36.2,28.8,08.0,0000.0,0002.75,0001.14,0000.58
2021-10-27 18:58:00,,0822.3,5.02,0.00,27.1,26.0,00.0,36.2,28.7,08.0,0000.0,0002.51,0001.09,0000.58
2021-10-27 18:59:00,,0822.4,4.99,0.00,27.1,26.0,00.0,36.2,28.7,08.0,0000.0,0002.42,0001.07,0000.58
